Date String (YYYY-MM-DD hh:mm:ss) UTC,Instrument flags,Ambient pressure (hPa),Sample flow (lpm),Bypass flow (lpm),Sample temperature (°C),Ambient temperature (°C),ASC tube jacket temperature (°C),LED temperature (°C),Box temperature (°C),Sample RH (%),Span deviation,Mass concentration (μg/m³),Mass concentration (μg/m³),Mass concentration (μg/m³)
DateTimeUTC,F1_M11,P_M11,Q1_M11,Q2_M11,T1_M11,T2_M11,T3_M11,T4_M11,T5_M11,U1_M11,ZSPAN_M11,X2_M11,X0_M11,X1_M11
2021-10-15 16:00:00,,0832.8,5.02,0.00,24.0,23.3,00.0,32.9,25.9,15.3,0000.0,0005.49,0010.28,0005.10
2021-10-15 16:01:00,,0832.8,4.99,0.00,24.0,23.3,00.0,32.9,26.0,15.5,0000.0,0005.53,0010.07,0005.15
2021-10-15 16:02:00,,0832.8,5.00,0.00,24.0,23.3,00.0,33.0,26.0,15.0,0000.0,0005.55,0010.52,0005.16
2021-10-15 16:03:00,,0832.9,4.99,0.00,24.0,23.3,00.0,33.0,26.0,14.1,0000.0,0005.50,0010.58,0005.09
2021-10-15 16:04:00,,0832.9,5.00,0.00,24.1,23.3,00.0,33.0,26.0,12.8,0000.0,0005.38,0010.55,0004.97
2021-10-15 16:05:00,,0832.9,4.99,0.00,24.1,23.4,00.0,33.0,26.0,11.8,0000.0,0005.18,0010.02,0004.78
2021-10-15 16:06:00,,0832.9,5.01,0.00,24.1,23.4,00.0,33.0,26.0,10.9,0000.0,0004.96,0009.70,0004.57
2021-10-15 16:07:00,,0832.8,5.01,0.00,24.1,23.4,00.0,33.0,26.1,11.5,0000.0,0004.76,0009.64,0004.38
2021-10-15 16:08:00,,0832.8,4.99,0.00,24.1,23.4,00.0,33.1,26.1,12.1,0000.0,0004.56,0008.90,0004.19
2021-10-15 16:09:00,,0832.8,5.00,0.00,24.1,23.4,00.0,33.1,26.1,12.0,0000.0,0004.36,0008.60,0004.03
2021-10-15 16:10:00,,0832.8,4.99,0.00,24.1,23.4,00.0,33.1,26.1,12.3,0000.0,0004.18,0008.35,0003.87
2021-10-15 16:11:00,,0832.8,5.02,0.00,24.1,23.4,00.0,33.1,26.1,13.2,0000.0,0004.03,0008.29,0003.71
2021-10-15 16:12:00,,0832.8,4.99,0.00,24.1,23.5,00.0,33.1,26.1,13.3,0000.0,0003.91,0007.92,0003.59
2021-10-15 16:13:00,,0832.9,5.00,0.00,24.2,23.5,00.0,33.1,26.1,13.6,0000.0,0003.79,0007.29,0003.48
2021-10-15 16:14:00,,0832.9,5.00,0.00,24.2,23.5,00.0,33.1,26.1,13.0,0000.0,0003.73,0006.58,0003.42
2021-10-15 16:15:00,,0832.9,5.00,0.00,24.2,23.5,00.0,33.2,26.2,13.3,0000.0,0003.76,0005.96,0003.45
2021-10-15 16:16:00,,0832.8,5.00,0.00,24.2,23.5,00.0,33.2,26.2,13.4,0000.0,0003.90,0006.27,0003.57
2021-10-15 16:17:00,,0832.8,5.00,0.00,24.2,23.5,00.0,33.2,26.2,12.8,0000.0,0003.98,0006.30,0003.67
2021-10-15 16:18:00,,0832.8,5.00,0.00,24.2,23.5,00.0,33.2,26.2,10.8,0000.0,0003.95,0005.94,0003.67
2021-10-15 16:19:00,,0832.8,5.01,0.00,24.3,23.5,00.0,33.2,26.3,10.5,0000.0,0003.92,0005.87,0003.64
2021-10-15 16:20:00,,0832.8,5.00,0.00,24.3,23.5,00.0,33.2,26.3,10.9,0000.0,0003.87,0005.76,0003.59
2021-10-15 16:21:00,,0832.9,4.99,0.00,24.3,23.5,00.0,33.3,26.3,10.9,0000.0,0003.83,0006.33,0003.54
2021-10-15 16:22:00,,0832.8,5.00,0.00,24.3,23.6,00.0,33.3,26.3,10.6,0000.0,0003.74,0006.14,0003.46
2021-10-15 16:23:00,,0832.9,5.00,0.00,24.3,23.6,00.0,33.3,26.3,10.6,0000.0,0003.61,0005.91,0003.35
2021-10-15 16:24:00,,0832.9,5.01,0.00,24.3,23.6,00.0,33.3,26.3,11.1,0000.0,0003.49,0005.67,0003.23
2021-10-15 16:25:00,,0832.8,4.99,0.00,24.4,23.6,00.0,33.3,26.3,11.4,0000.0,0003.37,0005.35,0003.14
2021-10-15 16:26:00,,0832.9,5.01,0.00,24.4,23.6,00.0,33.3,26.3,10.6,0000.0,0003.24,0005.00,0002.98
2021-10-15 16:27:00,,0832.8,5.01,0.00,24.4,23.7,00.0,33.4,26.4,10.9,0000.0,0003.11,0004.76,0002.76
2021-10-15 16:28:00,,0832.8,4.99,0.00,24.4,23.7,00.0,33.4,26.4,11.5,0000.0,0003.03,0004.79,0002.61
2021-10-15 16:29:00,,0832.8,4.99,0.00,24.4,23.6,00.0,33.4,26.3,11.2,0000.0,0003.06,0004.85,0002.63
2021-10-15 16:30:00,,0832.7,5.01,0.00,24.4,23.6,00.0,33.4,26.3,10.9,0000.0,0003.12,0004.98,0002.67
2021-10-15 16:31:00,,0832.8,4.99,0.00,24.4,23.6,00.0,33.4,26.3,11.0,0000.0,0003.15,0005.11,0002.72
2021-10-15 16:32:00,,0832.9,5.01,0.00,24.4,23.6,00.0,33.4,26.3,11.0,0000.0,0003.18,0004.73,0002.74
2021-10-15 16:33:00,,0832.8,5.00,0.00,24.4,23.6,00.0,33.4,26.3,10.9,0000.0,0003.17,0004.67,0002.72
2021-10-15 16:34:00,,0832.9,5.00,0.00,24.4,23.7,00.0,33.4,26.3,10.9,0000.0,0003.18,0004.65,0002.72
2021-10-15 16:35:00,,0832.8,5.00,0.00,24.4,23.7,00.0,33.4,26.4,11.2,0000.0,0003.17,0004.56,0002.72
2021-10-15 16:36:00,,0832.9,5.00,0.00,24.4,23.7,00.0,33.5,26.4,11.0,0000.0,0003.19,0004.81,0002.73
2021-10-15 16:37:00,,0832.8,4.99,0.00,24.4,23.6,00.0,33.5,26.4,10.6,0000.0,0003.21,0005.26,0002.74
2021-10-15 16:38:00,,0832.8,5.01,0.00,24.4,23.6,00.0,33.5,26.3,11.0,0000.0,0003.23,0005.29,0002.76
2021-10-15 16:39:00,,0832.8,5.01,0.00,24.4,23.6,00.0,33.5,26.4,11.2,0000.0,0003.21,0005.18,0002.76
2021-10-15 16:40:00,,0832.9,4.99,0.00,24.4,23.7,00.0,33.5,26.4,11.0,0000.0,0003.19,0005.09,0002.74
2021-10-15 16:41:00,,0833.0,5.00,0.00,24.4,23.7,00.0,33.5,26.4,10.5,0000.0,0003.15,0004.96,0002.69
2021-10-15 16:42:00,,0833.0,5.02,0.00,24.5,23.7,00.0,33.5,26.4,10.9,0000.0,0003.13,0004.88,0002.68
2021-10-15 16:43:00,,0833.0,5.00,0.00,24.5,23.7,00.0,33.5,26.4,11.1,0000.0,0003.13,0004.80,0002.70
2021-10-15 16:44:00,,0833.0,5.01,0.00,24.5,23.7,00.0,33.5,26.4,10.9,0000.0,0003.13,0004.68,0002.70
2021-10-15 16:45:00,,0832.9,4.98,0.00,24.5,23.7,00.0,33.5,26.4,10.7,0000.0,0003.14,0004.72,0002.69
2021-10-15 16:46:00,,0833.0,5.01,0.00,24.5,23.7,00.0,33.5,26.4,10.5,0000.0,0003.16,0004.84,0002.72
2021-10-15 16:47:00,,0832.9,5.00,0.00,24.5,23.7,00.0,33.5,26.4,10.5,0000.0,0003.15,0004.74,0002.72
2021-10-15 16:48:00,,0833.0,4.99,0.00,24.5,23.7,00.0,33.5,26.4,10.8,0000.0,0003.14,0004.19,0002.71
2021-10-15 16:49:00,,0833.1,5.02,0.00,24.5,23.7,00.0,33.5,26.4,10.3,0000.0,0003.13,0004.20,0002.68
2021-10-15 16:50:00,,0833.1,4.99,0.00,24.5,23.7,00.0,33.5,26.4,10.1,0000.0,0003.10,0004.16,0002.64
2021-10-15 16:51:00,,0833.0,5.01,0.00,24.5,23.7,00.0,33.5,26.4,10.1,0000.0,0003.09,0004.20,0002.63
2021-10-15 16:52:00,,0833.0,5.00,0.00,24.5,23.7,00.0,33.5,26.4,10.1,0000.0,0003.11,0004.60,0002.64
2021-10-15 16:53:00,,0833.0,5.00,0.00,24.5,23.7,00.0,33.5,26.4,10.4,0000.0,0003.12,0004.62,0002.65
2021-10-15 16:54:00,,0833.1,5.01,0.00,24.5,23.7,00.0,33.5,26.4,10.3,0000.0,0003.04,0004.48,0002.61
2021-10-15 16:55:00,,0833.0,5.00,0.00,24.5,23.7,00.0,33.5,26.4,10.2,0000.0,0003.04,0004.68,0002.60
2021-10-15 16:56:00,,0833.0,5.01,0.00,24.6,23.7,00.0,33.6,26.5,10.3,0000.0,0003.05,0005.10,0002.60
2021-10-15 16:57:00,,0833.1,5.00,0.00,24.6,23.8,00.0,33.6,26.5,10.1,0000.0,0003.07,0005.07,0002.60
2021-10-15 16:58:00,,0833.1,5.01,0.00,24.6,23.8,00.0,33.6,26.5,10.4,0000.0,0003.06,0005.07,0002.60
2021-10-15 16:59:00,,0833.0,5.00,0.00,24.6,23.8,00.0,33.6,26.5,10.6,0000.0,0003.08,0005.13,0002.59
